RH
19 18 18 18 18 19 21 21 20 21 22 20 21 21 20 20 19 20 22 23 22 21 20 18 17 16 15 22 30 32 33 33 32 33 36 39 41 46 51 54 56 56 53 50 49 49 51 54 54 55 56 55 53 53 54 57 61 63 62 61 57 52 50 47 47 48 45 41 39 40 42 42 42 38 37 35 32 28 25 23 22 23 25 28 33 35
19 17 18 19 21 23 25 26 25 24 23 22 22 21 21 20 20 21 23 24 24 23 22 20 17 16 18 23 29 32 32 32 33 34 37 40 44 49 54 57 59 56 54 52 52 52 52 54 53 53 55 54 52 51 51 55 60 60 61 60 55 51 49 46 47 48 45 41 39 40 41 42 42 40 38 36 31 26 23 21 20 22 24 24 28 31
19 18 18 21 24 26 26 25 24 23 24 23 22 22 21 20 21 23 25 26 25 23 21 19 17 18 21 26 30 33 31 33 37 37 40 45 50 55 56 58 58 57 56 55 52 51 51 52 52 52 53 53 53 52 53 58 61 59 60 60 56 52 47 46 49 49 46 41 38 39 41 42 43 41 42 41 37 32 29 28 26 27 27 25 27 28
19 18 19 22 24 24 25 25 23 22 22 23 22 21 21 21 23 24 25 26 26 24 22 19 18 21 25 30 33 35 33 36 41 42 45 51 56 58 58 58 60 59 58 55 51 51 52 52 51 52 52 52 51 51 52 58 61 59 58 59 56 51 46 48 51 49 46 41 37 38 40 41 43 43 44 46 44 41 38 37 33 31 30 29 29 28
18 19 21 23 23 22 24 25 22 19 20 24 25 22 21 22 23 23 25 26 25 25 24 21 21 24 27 32 37 38 37 39 45 47 50 54 57 57 57 59 61 60 57 53 51 52 53 53 53 54 54 52 50 49 49 54 58 56 53 53 51 48 47 51 52 47 43 40 38 38 38 39 40 41 44 47 50 47 43 40 36 30 28 32 34 32
19 21 22 24 25 24 24 24 23 20 20 24 26 24 23 23 24 25 26 26 23 23 25 24 24 26 27 29 36 40 42 45 48 48 49 54 58 58 58 59 60 58 54 53 52 52 53 55 56 56 56 53 50 48 47 50 53 51 49 48 47 46 47 50 50 45 42 41 40 38 38 38 39 39 41 47 53 52 44 39 37 31 28 33 36 33
21 23 25 27 29 29 25 24 25 23 21 24 26 26 25 25 26 27 27 25 23 25 30 29 26 28 28 27 33 38 43 47 49 48 48 52 56 57 57 57 57 57 55 53 52 52 53 55 55 55 55 53 50 47 46 48 52 50 47 46 45 45 47 49 49 44 42 41 41 40 40 41 40 41 42 46 54 55 47 40 37 32 29 32 35 32
23 25 29 31 32 31 26 24 26 25 22 25 29 28 25 24 25 29 28 25 27 29 33 33 28 28 30 30 32 35 39 45 47 47 47 49 53 54 54 55 56 57 55 51 49 49 52 54 53 54 54 53 52 50 49 51 54 52 48 46 45 44 46 47 45 42 40 40 40 40 42 42 42 45 44 44 50 53 50 45 40 35 31 30 33 32
28 29 31 31 31 29 27 26 28 26 22 26 31 29 26 25 26 29 27 27 30 30 31 34 32 30 32 32 33 34 35 38 41 42 43 45 49 53 54 54 54 55 52 47 46 48 52 54 54 54 54 52 52 54 54 54 54 53 50 47 45 44 44 44 43 41 40 39 40 42 42 42 43 46 48 45 45 48 47 46 44 40 36 32 31 29
30 29 29 29 28 27 27 28 29 26 24 27 30 28 27 27 28 29 27 28 31 30 31 37 37 32 32 33 33 33 32 33 35 37 37 40 44 49 53 54 54 56 53 49 50 51 53 55 55 55 55 53 51 53 54 54 53 51 50 49 47 45 45 45 45 43 42 42 42 44 46 45 46 49 51 49 47 45 42 43 44 41 37 33 30 25
30 29 29 29 26 27 28 29 29 27 27 29 27 25 25 27 27 28 29 29 30 32 32 37 40 35 32 33 34 34 35 35 35 36 35 35 38 44 50 54 56 58 58 55 55 57 57 57 55 56 56 54 53 55 56 54 52 52 52 51 50 49 48 49 48 46 45 45 45 48 48 47 49 51 51 52 51 47 42 41 43 42 39 35 29 23
31 28 28 28 27 27 27 28 28 27 28 28 27 25 24 26 27 27 29 29 29 33 35 38 41 37 33 34 35 37 38 39 39 38 36 35 36 40 47 53 56 59 61 59 59 60 60 58 57 58 58 55 56 57 57 56 54 54 54 53 53 53 52 52 50 48 48 47 47 47 47 48 52 53 54 56 57 53 47 45 45 46 43 38 31 24
32 29 28 28 28 27 26 27 28 28 28 27 27 27 26 27 28 28 29 29 29 33 37 41 42 38 36 36 38 40 41 42 43 43 42 42 42 42 44 50 55 58 61 60 59 60 60 59 58 58 58 58 56 56 57 58 56 55 55 55 55 56 55 54 51 50 51 50 47 47 49 50 50 50 52 55 59 59 56 52 53 51 45 40 34 28
32 31 30 28 29 28 26 27 29 31 30 28 28 28 28 29 31 31 31 32 30 31 37 42 41 39 38 39 41 43 44 45 48 49 50 50 48 45 44 47 53 57 59 60 59 60 61 61 60 59 60 59 57 58 60 59 57 56 56 57 58 60 58 54 53 52 52 52 51 51 50 49 47 50 54 57 61 65 63 59 58 54 47 41 35 31
33 33 31 29 29 29 28 28 30 33 33 32 31 29 30 30 31 31 31 31 30 31 36 39 40 41 40 41 43 44 45 47 50 52 54 55 53 49 47 51 55 57 60 60 59 59 61 61 62 62 65 66 64 63 63 63 61 58 58 60 61 60 58 59 60 58 53 51 53 55 57 59 59 59 61 63 67 70 68 65 61 55 50 43 35 31
34 33 32 32 31 31 31 31 30 31 34 34 33 31 31 31 31 33 34 34 34 34 35 37 39 40 42 43 44 45 47 49 52 53 55 55 54 53 53 55 55 55 58 59 58 58 58 59 61 61 68 75 74 69 65 64 64 61 60 63 61 59 65 72 70 62 54 53 56 58 64 69 68 65 67 70 71 71 68 63 59 56 52 44 35 31
38 36 34 33 32 32 33 33 32 32 34 35 34 33 33 33 34 37 38 39 38 36 36 37 38 40 43 45 45 47 50 51 52 54 55 56 56 56 56 55 53 53 52 52 53 53 53 58 62 60 64 75 78 75 69 67 66 63 63 63 61 65 72 72 67 63 60 60 60 58 59 64 64 65 71 73 70 68 63 57 56 57 53 43 35 31
44 43 41 36 34 33 32 34 34 34 35 35 35 35 36 36 36 36 38 39 37 36 36 37 38 39 41 44 45 46 48 50 52 55 55 57 56 54 54 52 50 49 46 47 51 53 55 60 64 63 63 70 75 74 71 70 67 65 64 63 61 65 65 59 57 60 63 63 60 56 56 60 62 66 70 71 68 66 58 54 56 56 50 41 36 34
49 46 45 42 38 36 34 33 35 35 34 34 35 36 37 37 37 36 37 38 37 36 37 37 39 38 36 39 40 41 43 44 46 49 50 51 50 50 50 49 49 49 50 53 54 55 55 56 59 63 65 67 70 70 69 70 68 65 64 61 56 54 51 47 47 49 52 54 53 51 50 53 55 60 66 68 67 65 58 55 57 55 48 42 37 36
54 51 50 46 42 39 37 35 36 36 36 36 35 36 38 38 38 38 38 37 36 37 37 37 38 36 34 37 38 36 37 37 39 43 45 46 49 52 53 53 52 54 57 55 52 53 55 54 55 60 62 63 65 65 66 67 67 64 60 55 49 46 44 43 45 46 48 49 50 48 47 47 48 55 63 64 64 66 61 58 58 53 46 44 42 41
56 53 52 50 46 42 40 38 38 37 38 38 38 37 38 38 37 38 38 38 36 36 38 38 36 35 36 39 40 40 40 40 41 44 47 50 54 56 58 59 57 57 60 57 55 60 66 67 65 64 64 65 67 68 68 68 65 61 56 51 48 45 43 45 46 49 50 50 50 49 46 45 48 54 61 61 62 66 61 57 58 52 44 44 45 44
56 54 55 54 49 44 42 41 40 39 38 39 39 38 39 40 39 38 40 40 38 37 39 38 36 37 40 42 43 44 46 47 46 47 51 55 58 59 61 65 63 63 67 66 63 66 70 71 70 69 69 71 71 71 71 68 62 57 54 52 51 49 48 49 50 52 52 51 50 48 44 43 44 49 54 55 57 60 57 55 58 52 43 40 42 44
59 58 57 54 49 45 44 43 42 42 40 39 39 39 40 40 41 40 41 43 42 41 42 40 38 42 47 47 47 48 50 51 51 50 53 59 63 62 63 66 66 68 74 72 67 67 70 70 67 69 72 71 68 67 66 63 59 57 55 53 52 52 52 53 55 56 55 54 52 48 44 42 40 40 43 46 50 53 52 54 57 53 45 39 38 42
62 61 57 53 49 45 43 43 43 43 41 40 40 41 42 42 42 42 42 45 45 44 44 41 40 45 49 48 48 49 51 52 54 54 54 62 70 71 68 67 66 67 70 70 67 69 73 73 70 71 72 69 66 66 64 63 60 57 56 55 53 53 54 57 60 61 59 57 55 52 46 43 41 39 38 40 45 47 49 52 53 50 46 43 42 43
59 59 57 54 51 48 45 44 43 42 42 43 43 45 45 45 46 46 46 47 46 46 45 41 41 46 49 48 48 49 50 51 53 55 55 62 73 76 73 71 69 66 66 66 66 67 70 71 69 68 68 68 69 68 65 65 65 62 59 57 55 56 58 61 61 62 61 60 58 55 50 47 45 43 41 41 44 46 48 50 49 47 47 47 48 49
61 62 60 55 53 52 48 46 45 45 45 45 45 47 48 48 49 48 47 46 46 48 47 42 44 48 48 48 49 50 50 50 52 54 56 61 69 72 72 71 69 68 67 66 66 66 67 67 65 67 70 71 70 67 65 66 68 66 63 60 59 59 61 61 60 60 60 60 60 57 52 49 47 46 45 43 43 45 48 51 50 46 46 46 46 48
68 66 62 58 55 53 52 51 51 50 50 50 50 51 53 54 55 52 48 46 47 49 50 47 49 51 50 51 52 52 52 52 52 55 57 61 63 63 65 66 64 64 64 64 64 63 62 62 63 66 68 68 66 65 64 64 64 63 63 63 63 61 60 60 58 58 58 58 59 57 54 49 46 45 46 45 45 47 50 53 52 48 47 47 47 47
72 69 64 62 58 56 56 57 56 54 54 56 57 57 58 58 58 55 52 53 52 49 51 54 54 54 55 56 55 55 55 53 53 58 61 61 60 59 60 61 61 60 59 58 57 56 54 55 56 58 59 60 60 60 61 61 61 62 64 65 64 60 57 55 56 57 57 57 57 56 54 52 49 46 46 48 48 48 51 54 54 52 51 51 50 49
72 72 70 67 63 61 60 57 57 56 57 58 59 60 60 59 58 56 56 59 57 51 53 58 59 59 61 61 59 58 57 55 55 61 65 63 59 57 59 60 60 58 54 51 51 50 51 51 52 53 53 54 56 58 59 60 61 62 61 60 57 52 49 48 49 50 52 55 56 54 52 51 51 50 49 50 51 50 51 55 56 53 51 50 51 52
65 69 71 72 71 70 67 64 62 61 60 61 61 60 61 60 58 57 56 57 56 55 56 59 61 64 64 63 62 61 61 58 57 60 63 61 56 53 52 55 56 54 50 47 47 48 49 49 50 51 52 53 55 56 56 55 53 51 50 47 45 43 43 43 44 44 46 47 50 51 50 48 48 50 51 55 56 53 52 54 55 53 52 52 52 53
57 62 66 70 74 75 73 72 71 68 66 66 64 62 62 62 62 61 59 56 55 56 58 59 63 67 64 63 64 63 64 62 59 60 62 61 58 54 50 49 50 50 49 48 49 50 50 50 52 53 55 55 55 53 51 49 47 44 42 41 40 40 40 40 41 43 44 43 44 46 46 46 47 48 51 55 56 54 51 53 57 57 57 57 57 57
56 59 61 64 70 72 72 74 76 76 74 71 69 67 67 68 68 67 65 63 61 60 60 61 65 68 65 64 65 65 66 66 65 65 65 63 60 57 53 49 47 48 51 52 53 54 54 55 54 54 55 54 53 52 51 49 47 44 43 42 41 40 40 40 40 41 43 44 44 44 44 45 47 49 51 54 54 51 50 52 56 60 61 60 61 62
55 56 58 61 65 69 71 73 76 78 76 72 71 73 74 73 73 73 71 70 69 66 63 61 63 65 64 65 67 67 67 69 71 72 70 67 63 59 55 52 50 52 55 56 59 60 61 60 58 56 55 55 55 55 54 53 52 50 48 46 44 44 45 43 41 41 42 45 47 47 46 45 46 49 52 53 53 53 51 50 52 57 59 59 58 59
55 54 57 60 62 66 68 70 73 75 72 68 66 69 71 71 71 71 71 71 71 69 66 64 64 64 64 65 66 68 69 72 74 74 71 68 64 61 59 57 57 58 60 60 62 63 63 62 59 57 57 57 57 59 58 58 58 56 54 51 49 49 49 47 45 44 45 47 49 48 48 46 46 48 50 53 54 54 53 52 53 55 56 55 54 54
56 56 59 61 60 63 66 66 70 70 65 63 63 63 63 63 63 62 62 61 62 63 62 62 63 63 65 67 67 68 70 72 72 71 70 67 65 64 63 64 64 63 63 62 62 61 61 59 57 59 62 62 62 61 61 61 60 59 57 56 54 54 52 49 47 45 46 48 48 48 48 49 51 52 53 55 57 58 57 55 56 56 56 56 56 58
58 58 62 63 62 65 65 61 62 63 61 61 61 60 60 61 60 60 60 57 56 56 56 56 56 57 61 64 66 67 69 70 72 72 71 69 68 66 66 66 64 62 60 60 59 59 58 57 56 58 60 61 61 60 58 58 58 59 60 59 57 56 53 51 48 45 45 47 47 48 48 49 53 57 57 59 63 65 64 61 61 60 59 61 63 64
61 60 60 60 62 66 67 63 65 67 67 63 62 61 62 63 62 62 63 62 60 59 59 58 57 57 58 61 64 65 66 69 71 73 73 71 68 66 65 63 62 60 58 57 57 57 58 57 56 55 55 56 55 55 54 53 53 54 56 56 55 53 51 52 52 50 49 50 49 49 48 48 51 55 56 59 64 67 68 68 68 66 64 65 68 69
65 63 60 61 65 69 71 72 74 74 71 67 66 65 64 65 66 65 64 65 65 64 64 64 63 63 62 63 65 66 67 68 68 69 70 70 68 67 65 64 63 62 61 60 59 59 58 58 57 57 56 56 56 55 54 53 52 51 50 50 49 48 47 48 50 49 48 49 50 53 54 54 53 53 56 61 65 69 74 75 75 75 74 74 73 71
68 68 64 65 68 68 69 72 73 73 71 69 69 68 66 67 69 69 67 66 64 65 67 68 68 67 66 66 68 68 69 68 67 66 68 70 69 68 67 66 65 64 64 63 62 61 60 60 59 59 59 59 58 57 55 54 52 49 46 44 44 44 44 45 45 44 43 44 47 50 52 52 52 54 60 65 67 72 77 78 78 79 80 78 74 71
67 71 71 70 71 70 69 72 74 75 74 72 71 71 71 71 72 72 69 65 63 66 69 70 72 71 69 68 68 69 70 69 67 68 69 69 68 66 65 64 62 61 60 60 59 58 58 57 56 56 55 54 54 52 50 49 47 46 44 42 41 41 41 41 42 42 42 41 41 43 47 49 49 52 58 62 64 69 75 76 75 76 77 77 75 73
64 70 74 77 79 79 78 80 82 81 78 74 74 76 76 76 76 73 68 65 66 70 71 72 73 74 72 71 70 71 73 72 70 70 69 67 65 63 62 60 57 56 54 52 51 49 48 48 46 45 45 45 44 43 42 41 41 40 40 40 41 41 40 38 38 39 41 42 40 41 44 47 50 53 56 58 59 63 70 72 71 72 73 72 72 72
67 70 71 73 77 81 81 82 84 83 79 76 77 77 78 79 78 73 70 69 70 72 73 73 74 73 74 74 74 75 75 73 71 70 68 66 64 62 60 58 56 54 51 50 47 45 43 42 41 40 40 39 39 39 38 38 38 38 39 40 41 42 40 39 38 38 39 41 43 44 45 47 50 52 54 58 60 61 65 67 67 70 72 70 69 70
69 73 75 75 76 77 78 81 82 80 78 78 78 78 78 78 76 74 74 73 72 72 74 75 75 74 74 75 74 73 73 71 70 69 68 67 67 65 64 62 59 57 54 52 50 48 45 43 42 41 40 40 39 39 39 39 39 39 39 40 41 42 41 41 41 40 39 40 42 45 48 51 54 55 57 62 66 67 68 67 65 66 70 70 70 70
65 70 76 80 80 79 79 81 80 78 78 79 78 77 78 78 76 76 77 76 75 75 76 78 79 78 77 77 77 76 75 75 75 74 74 73 72 70 69 67 64 62 60 58 56 54 51 49 46 45 44 44 44 43 43 42 41 41 41 41 42 42 43 44 45 44 43 43 43 44 47 50 55 58 60 62 65 68 70 71 69 66 67 70 71 71
61 64 69 75 80 82 81 81 81 82 82 81 79 80 81 81 80 79 79 79 81 80 79 82 83 82 81 82 82 81 82 81 81 80 79 77 75 73 71 68 66 63 61 60 58 55 52 49 47 44 42 41 41 40 38 37 37 36 36 37 37 38 39 40 41 42 42 43 43 44 46 47 50 55 58 60 62 64 67 71 71 67 65 68 73 75
58 60 61 66 72 75 77 80 81 81 84 83 82 83 83 82 83 83 82 83 84 83 82 83 85 84 83 83 83 83 83 82 81 80 79 77 75 72 69 66 63 60 57 54 51 47 43 41 38 36 35 34 32 30 28 27 27 27 27 28 28 29 30 31 32 33 34 36 38 40 43 44 45 48 51 55 58 61 64 68 70 71 70 70 73 78
53 54 57 61 64 66 70 76 76 77 79 80 81 82 83 82 81 81 80 81 81 80 79 79 79 78 78 78 78 77 77 76 74 73 71 68 65 62 59 56 53 50 47 44 41 38 36 34 33 31 30 28 26 25 23 22 22 21 22 22 21 22 22 23 23 24 25 26 28 31 34 37 40 43 45 49 52 56 61 66 68 72 76 75 75 79
52 52 55 59 60 61 66 72 73 73 75 75 75 77 79 80 80 79 78 78 76 76 76 75 74 74 74 73 73 72 71 69 67 65 63 59 56 53 51 49 47 46 44 43 41 38 36 33 31 30 28 27 26 26 25 25 25 24 23 22 21 21 20 19 19 20 20 20 21 23 26 29 32 36 41 46 48 50 54 59 63 68 73 74 72 72
54 53 55 57 58 59 63 65 66 65 65 65 66 67 69 71 73 74 75 74 74 73 73 72 71 70 69 67 66 64 61 60 58 56 54 51 50 49 48 47 46 46 45 44 41 38 36 35 34 33 33 33 33 33 33 33 32 33 32 31 29 27 24 22 20 20 19 19 20 20 21 24 26 29 34 42 48 48 48 50 54 60 66 69 71 71
52 52 53 55 57 58 58 59 59 57 56 57 58 58 57 58 58 60 62 63 65 65 65 64 63 62 60 59 58 56 54 53 51 51 50 49 49 47 45 44 42 41 41 40 38 38 39 40 41 41 41 42 42 42 43 43 43 43 42 40 38 37 34 31 28 24 21 20 20 20 21 22 25 26 29 35 43 50 51 49 49 52 56 60 68 77
48 48 48 50 52 52 52 54 54 51 49 50 51 50 49 49 48 48 48 49 49 49 50 49 49 49 49 49 48 47 46 45 45 44 43 42 41 39 37 36 36 37 39 40 41 44 46 47 48 49 50 51 52 53 52 52 52 51 49 47 46 44 42 40 38 34 29 26 22 21 21 22 23 27 29 30 35 43 50 54 54 54 54 54 58 67